Estació municipal de El Brull (Osona, P.N. del Montseny)

Consulta les dades en temps real de l'estació municipal de El Brull





Hora UTC 21:10
Temperatura 22.9 ºC
Humitat 71.9 %
Pressió 1025.2 hPa
Pluja 0.0 mm
Velocitat vent 0.9 km/h
Direcció vent NW
Radiació solar 0.0 W/m²

Webcam

Dades diàries 2026-09-03



Hora UTC (hivern +1h; estiu +2h)
Temperatura (ºC) Humitat (%) Pressió (hPa) Velocitat vent (km/h) Precipitació (mm) Radiació solar (W/m²)
Hora UTC Aire Humitat Pressió Vel. Dir. Vel. Max Dir. Intent. màx 5 min. Rad. Sol.
00:10 19.9 72.8 1025.2 1.1 N 5.1 NNW 0.0 0.0
00:20 19.4 74.4 1025.2 0.2 NNE 2.8 NNW 0.0 0.0
00:30 19.2 74.8 1025.3 0.2 NNE 1.5 N 0.0 0.0
00:40 19.1 74.7 1025.3 0.4 NE 1.6 N 0.0 0.0
00:50 19.1 74.1 1025.2 0.2 NE 1.5 NE 0.0 0.0
01:00 19.3 72.5 1025.2 0.3 NNE 2.8 NE 0.0 0.0
01:10 19.5 72.2 1025.2 0.0 NNE 0.0 0.0 0.0
01:20 19.4 72.8 1025.2 0.0 NE 0.8 NE 0.0 0.0
01:40 19.1 75.3 1025.1 0.0 NNE 1.2 N 0.0 0.0
01:50 19.1 75.6 1025.1 0.0 NE 0.6 NE 0.0 0.0
02:00 19.2 75.2 1025.1 0.0 NNE 0.0 0.0 0.0
02:10 19.4 74.4 1025.1 0.1 NE 1.3 NNE 0.0 0.0
02:20 19.5 73.8 1025.1 0.3 E 1.6 NNE 0.0 0.0
02:30 19.5 72.1 1025.1 1.6 SE 4.1 SE 0.0 0.0
02:40 19.6 71.4 1025.1 2.2 ESE 5.6 SE 0.0 0.0
02:50 19.7 71.1 1025.0 2.3 ESE 4.9 ESE 0.0 0.0
03:00 19.6 71.2 1024.9 2.1 ESE 4.8 ESE 0.0 0.0
03:10 20.0 70.3 1024.9 1.5 ESE 4.9 SE 0.0 0.0
03:20 20.3 68.4 1024.9 1.6 ESE 3.6 ESE 0.0 0.0
03:30 20.5 68.1 1024.9 1.7 N 6.0 NNW 0.0 0.0
03:40 20.0 71.1 1024.8 2.1 N 5.2 N 0.0 0.0
03:50 20.0 70.8 1024.7 1.1 ESE 3.9 SE 0.0 0.0
04:00 19.9 68.5 1024.6 2.6 SE 4.4 SE 0.0 0.0
04:10 19.9 67.7 1024.5 2.6 SE 6.1 SSE 0.0 0.0
04:20 20.1 66.4 1024.5 2.9 SE 5.1 SE 0.0 0.0
04:30 20.1 66.0 1024.5 3.0 SE 5.5 SE 0.0 0.0
04:40 20.3 65.2 1024.5 4.3 SE 7.1 SE 0.0 0.0
04:50 20.3 64.9 1024.5 1.9 SE 5.5 SSE 0.0 0.0
05:00 20.5 64.3 1024.6 0.1 SSW 2.1 SSW 0.0 0.2
05:10 20.5 65.3 1024.6 1.4 WSW 2.9 NNW 0.0 0.9
05:20 20.4 66.1 1024.7 0.9 SSE 2.6 SE 0.0 2.9
05:30 20.2 64.8 1024.8 2.5 SE 3.5 SE 0.0 0.0
05:40 20.2 64.7 1024.9 2.1 SE 4.8 SE 0.0 10.9
05:50 20.3 64.3 1024.9 1.8 SE 3.9 SE 0.0 15.1
06:10 20.4 64.1 1025.1 2.6 SSE 4.9 SE 0.0 24.4
06:20 20.8 63.8 1025.2 2.8 SSE 4.6 SSE 0.0 29.8
06:30 21.2 63.2 1025.3 2.2 SSE 3.5 SSE 0.0 57.7
06:40 21.6 62.5 1025.3 3.3 SSE 5.5 SSE 0.0 145.0
06:50 22.5 60.2 1025.3 4.8 SSE 9.1 S 0.0 199.3
07:00 23.4 57.0 1025.3 5.7 SSE 9.1 SSE 0.0 230.7
07:10 24.1 55.3 1025.3 5.0 S 8.2 SSW 0.0 262.1
07:20 24.5 53.5 1025.4 6.3 S 10.5 S 0.0 293.1
07:30 24.8 52.7 1025.4 7.0 S 10.4 SSW 0.0 324.3
07:40 25.0 51.7 1025.4 8.0 S 12.6 S 0.0 355.3
07:50 25.5 49.8 1025.4 5.9 SSW 12.7 SW 0.0 385.6
08:00 25.9 47.7 1025.4 7.1 SSW 15.1 SSW 0.0 415.6
08:10 25.9 47.0 1025.4 8.5 SSW 16.8 SSW 0.0 444.9
08:20 26.3 46.1 1025.4 8.8 SSW 18.0 S 0.0 473.9
08:30 26.5 45.6 1025.5 9.5 SSW 17.8 SSW 0.0 502.3
08:40 26.8 44.9 1025.6 10.0 SSW 17.8 SSW 0.0 529.2
08:50 26.9 44.8 1025.7 9.2 SSW 18.3 SSW 0.0 555.3
09:00 27.3 44.4 1025.7 9.9 S 17.8 SSW 0.0 581.5
09:10 27.4 44.0 1025.7 9.0 SSW 18.1 SSW 0.0 605.9
09:20 27.7 43.5 1025.8 9.6 S 17.8 SSW 0.0 630.3
09:30 27.6 43.2 1025.8 11.0 S 20.3 SW 0.0 653.3
09:40 27.8 42.8 1025.9 9.8 SSW 18.6 SSW 0.0 674.1
09:50 28.3 42.2 1025.8 10.2 SSW 19.4 S 0.0 695.3
10:00 28.3 41.7 1025.8 9.4 SSW 21.6 S 0.0 714.4
10:10 28.8 41.1 1025.7 9.8 SSW 18.7 SSW 0.0 734.5
10:20 28.9 40.5 1025.7 10.8 SSW 20.5 S 0.0 750.7
10:30 28.9 40.5 1025.7 8.9 SSW 18.5 S 0.0 765.6
10:40 29.3 40.0 1025.6 9.8 SSW 25.2 SSW 0.0 778.6
10:50 29.7 39.2 1025.5 8.9 SSW 23.2 SSW 0.0 790.0
11:00 29.2 39.4 1025.4 10.0 S 19.8 S 0.0 799.1
11:10 29.8 38.5 1025.3 8.9 SSW 19.3 S 0.0 807.0
11:30 29.8 38.1 1025.2 7.8 S 18.1 SSW 0.0 814.0
11:40 30.9 37.2 1025.2 8.6 S 19.9 SSW 0.0 817.0
11:50 30.7 36.8 1025.2 7.9 S 15.2 SSW 0.0 816.0
12:00 30.8 37.0 1025.0 7.2 S 16.3 SSW 0.0 817.0
12:10 31.0 36.4 1025.0 8.5 SSW 17.3 SSW 0.0 814.0
12:20 30.7 37.3 1025.0 7.9 S 16.0 SSW 0.0 813.0
12:30 31.4 36.7 1024.9 8.4 S 17.3 SSW 0.0 806.0
12:40 31.3 36.7 1024.9 6.3 SSW 15.3 SSW 0.0 795.8
12:50 31.2 37.7 1024.9 10.5 SSW 25.3 S 0.0 785.4
13:00 31.2 38.4 1024.8 11.0 SSW 20.3 S 0.0 777.1
13:10 31.4 38.2 1024.8 9.9 SSW 20.5 S 0.0 767.3
13:20 31.5 38.0 1024.8 8.9 SSW 18.7 SSW 0.0 752.2
13:30 31.0 38.5 1024.8 9.6 SSW 17.6 SW 0.0 740.0
13:40 30.5 39.5 1024.7 12.6 SSW 22.8 SSW 0.0 723.6
14:00 30.5 40.0 1024.6 10.0 S 20.5 SSW 0.0 688.6
14:10 30.6 40.3 1024.4 8.3 SSW 20.1 SSW 0.0 666.7
14:20 30.7 40.5 1024.4 9.7 SSW 20.1 SSW 0.0 644.5
14:30 30.0 42.9 1024.3 11.0 S 20.8 S 0.0 623.7
14:40 29.8 44.8 1024.3 10.9 SSW 22.6 SSW 0.0 598.5
14:50 29.6 46.4 1024.4 11.0 SSW 28.6 S 0.0 574.0
15:00 29.4 48.8 1024.4 8.7 SSW 22.9 SSW 0.0 545.8
15:10 29.1 50.5 1024.3 10.5 SSW 22.1 S 0.0 518.1
15:30 28.8 53.5 1024.2 9.4 SSW 19.2 S 0.0 463.0
15:40 29.0 53.2 1024.2 8.2 SSW 16.6 S 0.0 433.5
15:50 28.9 53.9 1024.2 7.7 SSW 20.9 SW 0.0 403.6
16:00 28.5 55.3 1024.2 8.7 SSW 17.9 SSW 0.0 370.7
16:10 28.1 57.1 1024.2 7.4 SW 19.1 S 0.0 337.8
16:20 27.8 58.5 1024.2 7.4 SW 16.5 WSW 0.0 308.1
16:30 27.6 59.4 1024.2 6.1 SSW 13.9 SW 0.0 283.2
16:40 27.6 59.2 1024.2 5.7 SW 14.0 SSW 0.0 256.2
16:50 27.5 59.5 1024.2 5.6 SSW 12.7 SSW 0.0 225.5
17:00 26.9 61.3 1024.2 7.5 SSW 15.4 SW 0.0 192.2
17:10 26.3 63.5 1024.2 7.3 SSW 15.3 SW 0.0 161.4
17:20 25.9 64.5 1024.2 7.7 SSW 15.5 S 0.0 126.1
17:30 25.2 67.2 1024.3 6.6 SSW 15.2 SW 0.0 38.9
17:40 24.7 69.0 1024.3 6.3 SSW 11.8 SSW 0.0 31.3
17:50 24.3 70.6 1024.2 6.1 SSW 12.9 SSW 0.0 21.7
18:00 24.0 71.8 1024.3 4.7 S 11.6 S 0.0 16.4
18:10 23.7 73.9 1024.4 6.8 SSW 13.5 S 0.0 10.9
18:20 23.3 75.5 1024.4 5.3 S 12.7 SSW 0.0 5.8
18:30 23.0 76.4 1024.5 6.5 S 14.3 S 0.0 2.6
18:40 22.8 76.9 1024.5 5.2 SSW 9.5 SSW 0.0 0.8
18:50 22.5 77.8 1024.6 3.8 S 8.3 S 0.0 0.1
19:00 22.1 78.9 1024.6 4.5 S 8.1 S 0.0 0.0
19:10 21.9 80.0 1024.7 3.7 S 7.9 S 0.0 0.0
19:20 21.7 80.6 1024.8 3.4 S 5.2 S 0.0 0.0
19:30 21.5 81.5 1024.9 4.4 S 7.2 S 0.0 0.0
19:40 21.2 81.4 1025.0 4.1 SE 6.6 SE 0.0 0.0
19:50 21.1 81.9 1025.0 4.4 SSE 6.5 SE 0.0 0.0
20:00 21.2 81.6 1025.1 4.1 SE 7.8 SE 0.0 0.0
20:10 21.4 80.3 1025.1 2.8 SE 5.1 SE 0.0 0.0
20:20 21.4 79.4 1025.2 2.2 SE 4.8 SSE 0.0 0.0
20:30 21.4 77.8 1025.3 2.5 ESE 4.0 SE 0.0 0.0
20:40 21.3 77.3 1025.3 2.8 E 5.1 ESE 0.0 0.0
20:50 21.7 73.1 1025.2 1.9 ESE 5.3 ESE 0.0 0.0
21:00 22.5 71.5 1025.2 0.0 NNE 0.0 0.0 0.0
21:10 22.9 71.9 1025.2 0.9 NW 3.1 NW 0.0 0.0
Màxima 31.5 81.9 1025.9 12.6 SSW 28.6 S 0.0 817.0
Mínima 19.1 36.4 1024.2
Total 0.0